PEGASUS DEB, 24091

Orbit data source: Space-Track

PEGASUS DEB, 24091 is space debris in LEO originally from a launch on Thu, 19 May 1994 UTC launched from the Air Force Western Test Range (AFWTR). Debris objects in space refer to the collection of defunct objects orbiting the Earth. Examples of debris include non-operational satellites, rocket bodies, and fragments generated from explosions, collisions, or faulty payload assembly.

Loading next visibility...
Identifier
24091, 1994-029EN
Orbit
LEO
Country
Flag of USUS
Related business
Manufacturer
Unknown
Mission
Spacecraft
Bus & Motor
Unknown
Mass
Unknown
Launch date (UTC)
1994-05-19 (32 years ago)
Launch vehicle
Unknown
Launch site
Air Force Western Test Range (AFWTR)
Object type
Payload
Rocket body
Debris
Shape & HBR
Unknown shape, 0.2 m
Radar Cross Section
Small (<0.1 m²)

Expand to show TLE details & history
Last TLE update: 13 hours ago

TLE from 13 hours ago
0 PEGASUS DEB
1 24091U 94029EN  26063.25155308  .00007628  00000-0  49827-3 0  9992
2 24091  81.9920 125.1265 0062742 180.4250 245.6640 15.06035507614493
Epoch: 2026-03-04T06:02Z
TLE epoch observation values (Epoch: 2026-03-04T06:02:14.186Z)
Latitude
64.33361°
Longitude
-110.5241°
Altitude
577.559 km
Speed
7.568 km/s
True Right ascension
09h 28m 12s
True Declination
64° 11' 44"
Sunlit
Object was in full shadow at epoch
Visualization orbit readout
Latitude
Unknown
Longitude
Unknown
Altitude
Unknown
Speed
Unknown
Apparent Right ascension
Unknown
Apparent Declination
Unknown
Sunlit
N/A
Visualization observer readout
Local Sidereal Time
22:50:28
Azimuth
Unknown
Elevation
Unknown
Doppler factor
Unknown
Orbital elements
Apogee altitude
588.779 km
Perigee altitude
501.901 km
Semi-major axis
6,923.477 km
Eccentricity
0.00627
Inclination
81.992°
RAAN
125.1265°
Arg. of periapsis
180.425°
True anomaly
245.01104°
Mean anomaly
245.664°
Eccentric anomaly
245.33731°
Mean motion
3.76753 °/min
Orbital period
95.55 mins
BSTAR
0.00049827
Loading maneuver chart data...
Computing Atmospheric mass density...

Documentation

Showing up to 5 results
|